Location: ???????
(55.4362°N, 38.1183°E)
Time: 21:24:17
(UTC+00:00)

M-CUBED/EXP-1 PRIME - Pass Details

Date: 06 December 2021
Orbit: 426 x 650 km, 101.7° (Epoch: 26 January)

Event Time Altitude Azimuth Distance (km) Brightness Sun altitude
Rises 15:35:39 0° 183° (S) 2,802 ? -20.8°
Reaches altitude 10° 15:37:55 10° 193° (SSW) 1,940 ? -21.1°
Maximum altitude 15:41:46 34° 258° (WSW) 1,039 ? -21.6°
Drops below altitude 10° 15:45:49 10° 324° (NW) 2,044 ? -22.2°
Sets 15:48:15 0° 333° (NNW) 2,976 ? -22.5°
